Location: Nordegg
(52.4712°N, 116.0743°W)
Time: 13:29:32
(UTC+00:00)

Envisat - Pass Details

Date: 06 December 2021
Orbit: 764 x 766 km, 98.2° (Epoch: 26 January)

Event Time Altitude Azimuth Distance (km) Brightness Sun altitude
Rises 14:15:23 0° 8° (N) 3,248 6.1 -11.9°
Reaches altitude 10° 14:18:00 10° 356° (N) 2,317 5.2 -11.6°
Maximum altitude 14:22:12 27° 301° (WNW) 1,455 3.9 -11.0°
Drops below altitude 10° 14:26:23 10° 245° (WSW) 2,304 5.1 -10.4°
Sets 14:28:59 0° 233° (SW) 3,226 5.9 -10.0°
